This demonstration page uses our WeatherBlox Daily Observations layout. Learn more.

Left ArrowRight Arrow

40.92945, -100.16068

Hourly Observations for July 8, 2020

Temp ( °F °C ) Dew Point ( °F °C ) Humidity (%) Winds ( mph kmh ) Pressure ( in mb ) Visibility ( mi km ) Precip ( " mm )
12:15 am 00:15 Clear 78 25.5 65 18.1 64 64 S 13 20 29.76 1008 10 16.0934 0 0
12:35 am 00:35 Clear 77 25.2 64 18 64 64 S 12 19 29.75 1007 10 16.0934 0 0
12:55 am 00:55 Clear 77 25.1 64 18 65 65 SSE 15 24 29.74 1007 10 16.0934 0 0
1:15 am 01:15 Clear 76 24.7 64 18 66 66 SSE 13 20 29.73 1007 10 16.0934 0 0
1:35 am 01:35 Clear 76 24.7 64 17.9 66 66 SSE 12 19 29.73 1007 10 16.0934 0 0
1:55 am 01:55 Clear 76 24.5 64 17.8 66 66 SSE 10 17 29.73 1007 10 16.0934 0 0
2:15 am 02:15 Clear 77 25 64 17.6 64 64 SSE 15 24 29.73 1007 10 16.0934 0 0
2:35 am 02:35 Clear 76 24.7 64 17.6 65 65 S 13 20 29.73 1007 10 16.0934 0 0
2:55 am 02:55 Clear 76 24.3 64 17.6 66 66 SSE 14 22 29.73 1007 10 16.0934 0 0
3:15 am 03:15 Clear 75 24 64 17.6 68 68 S 12 19 29.73 1007 10 16.0934 0 0
3:35 am 03:35 Clear 74 23.5 64 17.5 69 69 S 10 17 29.73 1007 10 16.0934 0 0
3:55 am 03:55 Clear 74 23.4 64 17.5 70 70 S 12 19 29.73 1007 10 16.0934 0 0
4:15 am 04:15 Clear 74 23.1 64 17.5 71 71 S 13 20 29.74 1007 10 16.0934 0 0
4:35 am 04:35 Clear 73 23 64 17.6 72 72 S 13 20 29.75 1007 10 16.0934 0 0
4:55 am 04:55 Clear 73 23 64 17.7 72 72 S 12 19 29.75 1007 10 16.0934 0 0
5:15 am 05:15 Clear 73 22.8 64 17.7 73 73 S 12 19 29.75 1007 10 16.0934 0 0
5:35 am 05:35 Clear 73 22.5 64 17.8 75 75 S 12 19 29.75 1007 10 16.0934 0 0
5:55 am 05:55 Clear 73 22.8 64 18 74 74 S 12 19 29.76 1008 10 16.0934 0 0
6:15 am 06:15 Clear 74 23.1 64 18 73 73 SSW 12 19 29.77 1008 10 16.0934 0 0
6:35 am 06:35 Sunny 73 23 65 18.1 74 74 SSW 10 17 29.77 1008 10 16.0934 0 0
6:55 am 06:55 Sunny 73 23 65 18.2 74 74 SSW 9 15 29.76 1008 10 16.0934 0 0
7:15 am 07:15 Sunny 73 23 65 18.3 75 75 S 9 15 29.76 1008 10 16.0934 0 0
7:35 am 07:35 Sunny 74 23.2 65 18.5 75 75 S 9 15 29.76 1008 10 16.0934 0 0
7:55 am 07:55 Sunny 75 23.8 65 18.5 72 72 S 10 17 29.74 1007 10 16.0934 0 0
8:15 am 08:15 Sunny 76 24.2 65 18.6 71 71 S 12 19 29.73 1007 10 16.0934 0 0
8:35 am 08:35 Sunny 77 25.1 66 18.9 69 69 S 13 20 29.72 1006 10 16.0934 0 0
8:55 am 08:55 Sunny 79 26 66 19 65 65 S 12 19 29.71 1006 10 16.0934 0 0
9:15 am 09:15 Sunny 80 26.7 66 18.8 62 62 S 15 24 29.71 1006 10 16.0934 0 0
9:35 am 09:35 Sunny 80 26.9 66 18.7 61 61 S 16 26 29.7 1006 10 16.0934 0 0
9:55 am 09:55 Sunny 82 27.6 66 18.7 58 58 S 15 24 29.69 1005 10 16.0934 0 0
10:15 am 10:15 Sunny 84 28.7 66 18.8 55 55 S 18 30 29.68 1005 10 16.0934 0 0
10:35 am 10:35 Sunny 85 29.5 66 18.8 53 53 SSW 17 28 29.67 1005 10 16.0934 0 0
10:55 am 10:55 Sunny 87 30.3 66 18.8 50 50 S 16 26 29.68 1005 10 16.0934 0 0
11:15 am 11:15 Sunny 87 30.7 65 18.5 48 48 S 20 31 29.66 1005 10 16.0934 0 0
11:35 am 11:35 Sunny 89 31.5 65 18.5 46 46 S 18 30 29.65 1004 10 16.0934 0 0
11:55 am 11:55 Sunny 89 31.9 67 19.2 47 47 S 16 26 29.65 1004 10 16.0934 0 0
12:15 pm 12:15 Sunny 91 32.5 66 19 45 45 S 17 28 29.64 1004 10 16.0934 0 0
12:35 pm 12:35 Sunny 91 32.5 67 19.5 46 46 S 18 30 29.64 1004 10 16.0934 0 0
12:55 pm 12:55 Sunny 91 33 67 19.4 45 45 S 15 24 29.64 1004 10 16.0934 0 0
1:15 pm 13:15 Sunny 92 33.6 67 19.6 44 44 S 20 31 29.61 1003 10 16.0934 0 0
1:35 pm 13:35 Sunny 93 33.7 66 19 42 42 S 21 33 29.61 1003 10 16.0934 0 0
1:55 pm 13:55 Sunny 94 34.3 66 19.1 41 41 S 17 28 29.6 1002 10 16.0934 0 0
2:15 pm 14:15 Sunny 95 34.9 66 18.9 39 39 S 18 30 29.59 1002 10 16.0934 0 0
2:35 pm 14:35 Sunny 95 34.8 66 18.9 39 39 S 18 30 29.58 1002 10 16.0934 0 0
2:55 pm 14:55 Sunny 95 35 66 18.9 39 39 SSE 18 30 29.58 1002 10 16.0934 0 0
3:15 pm 15:15 Sunny 95 35.2 67 19.2 39 39 SSE 18 30 29.57 1001 10 16.0934 0 0
3:35 pm 15:35 Sunny 96 35.6 67 19.6 39 39 SSE 21 33 29.57 1001 10 16.0934 0 0
3:55 pm 15:55 Partly Cloudy 95 35.2 67 19.4 39 39 SSE 17 28 29.57 1001 10 16.0934 0 0
4:15 pm 16:15 Partly Cloudy 95 35 67 19.5 40 40 S 22 35 29.57 1001 10 16.0934 0 0
4:35 pm 16:35 Partly Cloudy 95 34.9 67 19.5 40 40 SSE 17 28 29.56 1001 10 16.0934 0 0
4:55 pm 16:55 Partly Cloudy 95 34.9 68 19.8 41 41 SSE 16 26 29.56 1001 10 16.0934 0 0
5:15 pm 17:15 Partly Cloudy 94 34.5 68 19.9 42 42 SSE 18 30 29.57 1001 10 16.0934 0 0
5:35 pm 17:35 Partly Cloudy 94 34.7 68 20.1 42 42 SSE 17 28 29.55 1001 10 16.0934 0 0
5:55 pm 17:55 Sunny 94 34.5 68 19.9 42 42 SSE 17 28 29.56 1001 10 16.0934 0 0
6:15 pm 18:15 Sunny 93 34 68 20.1 44 44 SSE 21 33 29.56 1001 10 16.0934 0 0
6:35 pm 18:35 Sunny 92 33.6 68 20.2 45 45 SE 17 28 29.56 1001 10 16.0934 0 0
6:55 pm 18:55 Sunny 92 33.3 69 20.4 47 47 SE 18 30 29.56 1001 10 16.0934 0 0
7:15 pm 19:15 Sunny 91 32.7 68 20.2 48 48 SSE 17 28 29.57 1001 10 16.0934 0 0
7:35 pm 19:35 Sunny 89 31.9 69 20.4 51 51 SE 18 30 29.56 1001 10 16.0934 0 0
7:55 pm 19:55 Sunny 88 30.9 69 20.3 53 53 SSE 18 30 29.55 1001 10 16.0934 0 0
8:15 pm 20:15 Sunny 86 30.2 68 20.1 55 55 SSE 21 33 29.54 1000 10 16.0934 0 0
8:35 pm 20:35 Sunny 85 29.7 67 19.6 55 55 SSE 20 31 29.54 1000 10 16.0934 0 0
8:55 pm 20:55 Sunny 85 29.5 67 19.5 55 55 SE 13 20 29.54 1000 10 16.0934 0 0
9:15 pm 21:15 Clear with Nearby Thunderstorms 84 29.1 67 19.5 56 56 SE 18 30 29.55 1001 10 16.0934 0 0
9:35 pm 21:35 Clear 84 28.7 67 19.6 58 58 SE 16 26 29.57 1001 10 16.0934 0 0
9:55 pm 21:55 Clear 83 28.3 67 19.6 59 59 SSE 18 30 29.56 1001 10 16.0934 0 0
10:15 pm 22:15 Mostly Cloudy with Thunderstorms 72 22.2 59 14.9 63 63 W 26 43 29.73 1007 10 16.0934 0 0
10:35 pm 22:35 Cloudy with Heavy Thunderstorms 67 19.7 63 17.3 86 86 WNW 16 26 29.81 1009 5 8.0467 0 0
10:55 pm 22:55 Cloudy with Thunderstorms 66 19 64 17.6 92 92 SSW 7 11 29.81 1010 10 16.0934 0 0
11:15 pm 23:15 Cloudy 67 19.6 63 17.2 86 86 N 8 13 29.83 1010 10 16.0934 0 0
11:35 pm 23:35 Cloudy with Rain 67 19.3 64 17.5 89 89 E 8 13 29.88 1012 10 16.0934 0 0
11:55 pm 23:55 Cloudy 67 19.3 62 16.9 86 86 E 20 31 29.78 1008 10 16.0934 0 0

Powered by AerisWeather